DAL864 TXKF-MTPP

Flight info

Callsign DAL864
Flight time N/A
Altitude 36000
Route SOMRR1 ANTIG M328 TASNI/M079F350 L455 MCOOP/M079F360 M594 MLLER/N0462F360 M594 CERDA A554 GTK G444 BOTES/N0404F240 G444 SEPTO DCT SEDET SAVA1C
Aircraft A321/M-SDE3FGHIRWY/LB1

Departure

Time N/A
Airport L.F. Wade International Airport (TXKF)

Arrival

Time 2026-05-08 20:24
Airport Toussaint Louverture International Airport (MTPP)
Time Latitude Longitude Altitude Speed Heading
2026-05-08 19:59 20.34904 -71.79220 35986 ft 460 kts 195°
2026-05-08 19:59 20.28683 -71.80838 35978 ft 460 kts 195°
2026-05-08 20:00 20.22465 -71.82457 35980 ft 460 kts 195°
2026-05-08 20:00 20.16237 -71.84070 35977 ft 461 kts 195°
2026-05-08 20:01 20.10007 -71.85683 35980 ft 461 kts 196°
2026-05-08 20:01 20.03759 -71.87296 35749 ft 462 kts 195°
2026-05-08 20:02 20.00637 -71.88100 35509 ft 463 kts 195°
2026-05-08 20:02 19.97504 -71.88906 35274 ft 463 kts 194°
2026-05-08 20:02 19.94375 -71.89711 34968 ft 464 kts 196°
2026-05-08 20:02 19.91211 -71.90531 34085 ft 472 kts 194°
2026-05-08 20:03 19.87988 -71.91367 33073 ft 479 kts 194°
2026-05-08 20:03 19.84734 -71.92208 32351 ft 480 kts 194°
2026-05-08 20:03 19.81504 -71.93038 31804 ft 477 kts 194°
2026-05-08 20:03 19.78291 -71.93863 31199 ft 475 kts 194°
2026-05-08 20:04 19.75086 -71.94689 30597 ft 473 kts 194°
2026-05-08 20:04 19.71892 -71.95511 29991 ft 471 kts 194°
2026-05-08 20:04 19.68713 -71.96326 29345 ft 469 kts 194°
2026-05-08 20:04 19.65564 -71.97166 28796 ft 464 kts 198°
2026-05-08 20:05 19.62581 -71.98407 28248 ft 458 kts 207°
2026-05-08 20:05 19.59745 -71.99922 27700 ft 454 kts 207°
2026-05-08 20:05 19.56935 -72.01423 27160 ft 451 kts 207°
2026-05-08 20:05 19.54140 -72.02911 26630 ft 447 kts 207°
2026-05-08 20:06 19.51370 -72.04381 26112 ft 444 kts 207°
2026-05-08 20:06 19.48614 -72.05839 25611 ft 441 kts 207°
2026-05-08 20:06 19.45882 -72.07280 25116 ft 437 kts 207°
2026-05-08 20:06 19.43173 -72.08710 24637 ft 433 kts 207°
2026-05-08 20:07 19.40486 -72.10133 24152 ft 430 kts 207°
2026-05-08 20:07 19.37818 -72.11548 23676 ft 427 kts 207°
2026-05-08 20:07 19.35169 -72.12952 23154 ft 424 kts 207°
2026-05-08 20:07 19.32546 -72.14341 22684 ft 419 kts 207°
2026-05-08 20:08 19.29957 -72.15710 22219 ft 414 kts 207°
2026-05-08 20:08 19.27392 -72.17065 21756 ft 410 kts 207°
2026-05-08 20:08 19.24854 -72.18404 21297 ft 406 kts 207°
2026-05-08 20:08 19.22335 -72.19736 20830 ft 403 kts 207°
2026-05-08 20:09 19.19892 -72.21170 20362 ft 400 kts 216°
2026-05-08 20:09 19.17795 -72.23074 19884 ft 396 kts 229°
2026-05-08 20:09 19.16153 -72.25387 19425 ft 392 kts 242°
2026-05-08 20:09 19.15033 -72.27984 18957 ft 387 kts 255°
2026-05-08 20:10 19.14430 -72.30741 18498 ft 384 kts 262°
2026-05-08 20:10 19.13936 -72.33507 17999 ft 383 kts 262°
2026-05-08 20:10 19.13431 -72.36273 17528 ft 381 kts 261°
2026-05-08 20:10 19.12924 -72.39006 17079 ft 377 kts 261°
2026-05-08 20:11 19.12418 -72.41714 16633 ft 374 kts 261°
2026-05-08 20:11 19.11918 -72.44401 16190 ft 371 kts 261°
2026-05-08 20:11 19.11424 -72.47067 15751 ft 369 kts 261°
2026-05-08 20:11 19.10931 -72.49729 15310 ft 368 kts 261°
2026-05-08 20:12 19.10434 -72.52413 14855 ft 367 kts 260°
2026-05-08 20:12 19.09850 -72.55032 14423 ft 367 kts 250°
2026-05-08 20:12 19.08604 -72.57374 13963 ft 367 kts 229°
2026-05-08 20:12 19.06697 -72.59131 13514 ft 363 kts 208°
2026-05-08 20:13 19.04392 -72.60096 13244 ft 349 kts 188°
2026-05-08 20:13 19.02056 -72.60317 12961 ft 331 kts 178°
2026-05-08 20:13 18.99784 -72.60372 12458 ft 322 kts 178°
2026-05-08 20:13 18.97611 -72.60416 12047 ft 311 kts 179°
2026-05-08 20:14 18.95446 -72.60455 11650 ft 303 kts 179°
2026-05-08 20:14 18.93365 -72.60492 11254 ft 295 kts 178°
2026-05-08 20:14 18.91338 -72.60528 10877 ft 288 kts 178°
2026-05-08 20:14 18.89360 -72.60566 10503 ft 281 kts 179°
2026-05-08 20:15 18.87412 -72.60604 10146 ft 280 kts 179°
2026-05-08 20:15 18.85481 -72.60640 9766 ft 281 kts 179°
2026-05-08 20:15 18.83525 -72.60673 9363 ft 281 kts 179°
2026-05-08 20:15 18.81547 -72.60707 8972 ft 280 kts 179°
2026-05-08 20:16 18.79604 -72.60747 8596 ft 279 kts 179°
2026-05-08 20:16 18.77690 -72.60791 8207 ft 278 kts 179°
2026-05-08 20:16 18.75731 -72.60836 7823 ft 278 kts 179°
2026-05-08 20:16 18.73795 -72.60879 7430 ft 278 kts 179°
2026-05-08 20:17 18.71857 -72.60920 7031 ft 279 kts 179°
2026-05-08 20:17 18.69916 -72.60960 6627 ft 279 kts 179°
2026-05-08 20:17 18.67970 -72.61000 6203 ft 280 kts 179°
2026-05-08 20:17 18.66043 -72.61044 5883 ft 276 kts 180°
2026-05-08 20:18 18.64101 -72.61045 5335 ft 281 kts 172°
2026-05-08 20:18 18.62237 -72.60480 4859 ft 279 kts 152°
2026-05-08 20:18 18.60738 -72.59286 4417 ft 264 kts 130°
2026-05-08 20:18 18.59789 -72.57753 4330 ft 239 kts 116°
2026-05-08 20:19 18.59083 -72.56264 4254 ft 223 kts 116°
2026-05-08 20:19 18.58383 -72.54820 4154 ft 215 kts 117°
2026-05-08 20:19 18.57712 -72.53442 4062 ft 213 kts 117°
2026-05-08 20:19 18.57105 -72.52023 3972 ft 213 kts 106°
2026-05-08 20:20 18.56919 -72.50463 3752 ft 214 kts 87°
2026-05-08 20:20 18.57004 -72.48900 3491 ft 213 kts 86°
2026-05-08 20:20 18.57085 -72.47371 3239 ft 207 kts 87°
2026-05-08 20:20 18.57161 -72.45907 2972 ft 191 kts 86°
2026-05-08 20:21 18.57228 -72.44589 2667 ft 172 kts 88°
2026-05-08 20:21 18.57287 -72.43378 2412 ft 160 kts 87°
2026-05-08 20:21 18.57346 -72.42221 2173 ft 157 kts 87°
2026-05-08 20:21 18.57403 -72.41082 1950 ft 154 kts 88°
2026-05-08 20:22 18.57442 -72.40325 1807 ft 152 kts 88°
2026-05-08 20:22 18.57499 -72.39213 1611 ft 151 kts 88°
2026-05-08 20:22 18.57555 -72.38108 1395 ft 150 kts 87°
2026-05-08 20:22 18.57609 -72.37015 1206 ft 149 kts 88°
2026-05-08 20:23 18.57674 -72.35926 998 ft 149 kts 88°
2026-05-08 20:23 18.57719 -72.34827 795 ft 152 kts 86°
2026-05-08 20:23 18.57774 -72.33703 616 ft 152 kts 86°
2026-05-08 20:23 18.57841 -72.32584 468 ft 152 kts 84°
2026-05-08 20:24 18.57887 -72.31469 251 ft 152 kts 86°
2026-05-08 20:24 18.57946 -72.30364 92 ft 146 kts 85°
2026-05-08 20:24 18.57996 -72.29493 95 ft 89 kts 88°
2026-05-08 20:24 18.58018 -72.28997 102 ft 49 kts 86°
2026-05-08 20:25 18.58034 -72.28717 106 ft 34 kts 86°
2026-05-08 20:25 18.58050 -72.28501 111 ft 18 kts 79°
2026-05-08 20:25 18.58078 -72.28404 112 ft 11 kts 122°
2026-05-08 20:25 18.58048 -72.28429 112 ft 9 kts 261°
2026-05-08 20:26 18.58041 -72.28520 110 ft 18 kts 266°
2026-05-08 20:26 18.58033 -72.28685 107 ft 27 kts 269°
2026-05-08 20:26 18.58021 -72.28921 104 ft 32 kts 268°
2026-05-08 20:26 18.58013 -72.29127 99 ft 27 kts 266°
2026-05-08 20:27 18.58003 -72.29320 97 ft 26 kts 267°
2026-05-08 20:27 18.57963 -72.29457 95 ft 17 kts 212°
2026-05-08 20:27 18.57847 -72.29464 96 ft 16 kts 174°
2026-05-08 20:27 18.57744 -72.29455 97 ft 12 kts 178°
2026-05-08 20:28 18.57688 -72.29499 98 ft 11 kts 257°
2026-05-08 20:28 18.57650 -72.29562 94 ft 10 kts 189°
2026-05-08 20:28 18.57628 -72.29560 95 ft 2 kts 169°
2026-05-08 20:28 18.57623 -72.29560 95 ft 0 kts 175°
2026-05-08 20:29 18.57621 -72.29559 96 ft 0 kts 176°